Weather History for KAZC - September, 2013

Change the Weather History Date:

Monday, September 16, 2013

  Actual Average (KCDC) Record (KCDC)
Temperature  
Mean Temperature 73 °F 62 °F  
Max Temperature 89 °F 79 °F 90 °F (1956)
Min Temperature 57 °F 45 °F 33 °F (2006)
Degree Days  
Heating Degree Days 0 4  
Month to date heating degree days 38  
Since 1 July heating degree days 47  
Cooling Degree Days 8 1  
Month to date cooling degree days 32  
Year to date cooling degree days 581  
Growing Degree Days 23 (Base 50)    
Moisture  
Dew Point 52 °F    
Average Humidity 55    
Maximum Humidity 87    
Minimum Humidity 20    
Precipitation  
Precipitation 0.00 in 0.02 in 0.37 in (1996)
Month to date precipitation 0.33  
Year to date precipitation 7.87  
Sea Level Pressure  
Sea Level Pressure 30.10 in    
Wind  
Wind Speed 3 mph (SE)    
Max Wind Speed 10 mph    
Max Gust Speed -    
Visibility 10 miles    
Events      
T = Trace of Precipitation, MM = Missing Value Source: NWS Daily Summary

Daily Weather History Graph

Daily Weather History Graph

Search for Another Location

Airport or City:

Trip Planner

Search our weather history database for the weather conditions in past years. The results will help you decide how hot, cold, wet, or windy it might be!

Date:

Astronomy

Sep. 16, 2013 Rise Set
Actual Time 6:15 AM MST 6:37 PM MST
Civil Twilight 5:49 AM MST 7:03 PM MST
Nautical Twilight 5:18 AM MST 7:34 PM MST
Astronomical Twilight 4:47 AM MST 8:05 PM MST
Moon 4:46 PM MST (9/16) 3:09 AM MST (9/16)
Length of Visible Light 13h 14m
Length of Day
12h 22m
Waxing Gibbous, 91% of the Moon is Illuminated
Sep 16
Waxing Gibbous
Sep 19
Full
Sep 26
Last Quarter
Oct 4
New
Oct 11
First Quarter

Hourly Weather History & Observations

Time (MST) Temp. Heat Index Dew Point Humidity Pressure Visibility Wind Dir Wind Speed Gust Speed Precip Events Conditions
12:15 AM 60.6 °F - 55.2 °F 82% 30.12 in 10.0 mi Calm Calm - N/A   Clear
12:35 AM 61.3 °F - 55.4 °F 81% 30.12 in 10.0 mi Calm Calm - N/A   Clear
12:55 AM 62.6 °F - 55.0 °F 76% 30.12 in 10.0 mi East 6.9 mph - N/A   Clear
1:15 AM 64.4 °F - 54.5 °F 70% 30.12 in 10.0 mi ESE 4.6 mph - N/A   Clear
1:35 AM 64.0 °F - 54.1 °F 70% 30.13 in 10.0 mi Calm Calm - N/A   Clear
1:55 AM 62.8 °F - 54.5 °F 74% 30.12 in 10.0 mi Calm Calm - N/A   Clear
2:15 AM 64.6 °F - 53.4 °F 67% 30.12 in 10.0 mi SE 4.6 mph - N/A   Clear
2:35 AM 63.0 °F - 53.4 °F 71% 30.12 in 10.0 mi SSE 4.6 mph - N/A   Clear
2:55 AM 59.7 °F - 54.0 °F 81% 30.12 in 10.0 mi Calm Calm - N/A   Clear
3:15 AM 60.3 °F - 53.8 °F 79% 30.12 in 10.0 mi SSE 3.5 mph - N/A   Clear
3:35 AM 60.3 °F - 53.6 °F 79% 30.12 in 10.0 mi Calm Calm - N/A   Clear
3:55 AM 59.5 °F - 53.8 °F 81% 30.13 in 10.0 mi Calm Calm - N/A   Clear
4:15 AM 58.8 °F - 53.8 °F 83% 30.13 in 10.0 mi South 4.6 mph - N/A   Clear
4:35 AM 59.4 °F - 53.8 °F 82% 30.13 in 10.0 mi South 3.5 mph - N/A   Clear
4:55 AM 58.5 °F - 53.8 °F 84% 30.13 in 10.0 mi SSE 3.5 mph - N/A   Clear
5:15 AM 58.1 °F - 53.8 °F 86% 30.13 in 10.0 mi SE 4.6 mph - N/A   Clear
5:35 AM 57.9 °F - 54.1 °F 87% 30.14 in 10.0 mi SE 4.6 mph - N/A   Clear
5:55 AM 58.5 °F - 54.5 °F 87% 30.14 in 10.0 mi Calm Calm - N/A   Clear
6:15 AM 59.0 °F - 54.3 °F 84% 30.15 in 10.0 mi Calm Calm - N/A   Clear
6:35 AM 60.1 °F - 54.1 °F 81% 30.15 in 10.0 mi Calm Calm - N/A   Clear
6:55 AM 60.8 °F - 54.7 °F 80% 30.15 in 10.0 mi Calm Calm - N/A   Clear
7:15 AM 62.6 °F - 55.8 °F 78% 30.15 in 10.0 mi Calm Calm - N/A   Clear
7:35 AM 65.3 °F - 56.7 °F 74% 30.16 in 10.0 mi SSE 4.6 mph - N/A   Clear
7:55 AM 67.6 °F - 57.2 °F 69% 30.16 in 10.0 mi SSE 5.8 mph - N/A   Clear
8:15 AM 70.5 °F - 57.2 °F 63% 30.16 in 10.0 mi SSE 5.8 mph - N/A   Clear
8:35 AM 72.9 °F - 57.0 °F 57% 30.16 in 10.0 mi Calm Calm - N/A   Clear
8:55 AM 74.5 °F - 54.7 °F 50% 30.16 in 10.0 mi Calm Calm - N/A   Clear
9:15 AM 76.5 °F - 54.7 °F 47% 30.16 in 7.0 mi ENE 3.5 mph - N/A   Clear
9:35 AM 78.1 °F - 53.6 °F 43% 30.17 in 10.0 mi Calm Calm - N/A   Clear
9:55 AM 80.1 °F 80.0 °F 53.8 °F 40% 30.17 in 10.0 mi Calm Calm - N/A   Clear
10:15 AM 81.0 °F 80.8 °F 55.8 °F 42% 30.16 in 10.0 mi SE 5.8 mph - N/A   Clear
10:35 AM 82.4 °F 81.6 °F 54.7 °F 38% 30.16 in 10.0 mi SE 6.9 mph - N/A   Clear
10:55 AM 83.5 °F - 51.6 °F 33% 30.16 in 10.0 mi SE 4.6 mph - N/A   Clear
11:15 AM 84.0 °F - 50.7 °F 31% 30.15 in 10.0 mi SE 10.4 mph - N/A   Clear
11:35 AM 84.9 °F - 49.3 °F 29% 30.15 in 10.0 mi SSE 9.2 mph - N/A   Clear
11:55 AM 85.3 °F - 49.3 °F 29% 30.14 in 10.0 mi SSE 3.5 mph - N/A   Clear
12:15 PM 85.6 °F - 49.1 °F 28% 30.13 in 10.0 mi SSE 10.4 mph - N/A   Clear
12:35 PM 86.4 °F - 48.4 °F 27% 30.13 in 10.0 mi SSE 10.4 mph - N/A   Clear
12:55 PM 87.1 °F - 48.4 °F 26% 30.13 in 10.0 mi SE 9.2 mph - N/A   Clear
1:15 PM 86.9 °F - 48.2 °F 26% 30.12 in 10.0 mi SSE 5.8 mph - N/A   Clear
1:35 PM 87.1 °F - 47.8 °F 26% 30.11 in 10.0 mi South 5.8 mph - N/A   Clear
1:55 PM 87.8 °F - 47.7 °F 25% 30.10 in 10.0 mi ESE 3.5 mph - N/A   Clear
2:15 PM 87.6 °F - 46.8 °F 24% 30.09 in 10.0 mi South 6.9 mph - N/A   Clear
2:35 PM 88.2 °F - 46.9 °F 24% 30.08 in 10.0 mi SSE 8.1 mph - N/A   Scattered Clouds
2:55 PM 88.7 °F - 43.9 °F 21% 30.07 in 10.0 mi South 5.8 mph - N/A   Clear
3:15 PM 88.5 °F - 44.4 °F 22% 30.06 in 10.0 mi SE 9.2 mph - N/A   Scattered Clouds
3:35 PM 89.4 °F - 45.1 °F 21% 30.05 in 10.0 mi SE 8.1 mph - N/A   Mostly Cloudy
3:55 PM 88.9 °F - 44.2 °F 21% 30.05 in 10.0 mi East 5.8 mph - N/A   Mostly Cloudy
4:15 PM 88.7 °F - 42.8 °F 20% 30.05 in 10.0 mi SE 5.8 mph - N/A   Scattered Clouds
4:35 PM 88.5 °F - 43.2 °F 20% 30.04 in 10.0 mi South 4.6 mph - N/A   Clear
4:55 PM 88.0 °F - 44.8 °F 22% 30.04 in 10.0 mi South 8.1 mph - N/A   Clear
5:15 PM 87.3 °F - 44.8 °F 23% 30.04 in 10.0 mi South 8.1 mph - N/A   Scattered Clouds
5:35 PM 86.7 °F - 45.5 °F 24% 30.04 in 10.0 mi South 5.8 mph - N/A   Scattered Clouds
5:55 PM 85.5 °F - 46.6 °F 26% 30.03 in 10.0 mi SSE 4.6 mph - N/A   Scattered Clouds
6:15 PM 83.7 °F - 48.2 °F 29% 30.03 in 10.0 mi SSE 4.6 mph - N/A   Scattered Clouds
6:35 PM 79.2 °F - 52.2 °F 39% 30.03 in 10.0 mi SE 5.8 mph - N/A   Scattered Clouds
6:55 PM 74.7 °F - 54.7 °F 50% 30.03 in 10.0 mi ESE 5.8 mph - N/A   Clear
7:15 PM 70.7 °F - 55.2 °F 58% 30.03 in 10.0 mi ESE 5.8 mph - N/A   Clear
7:35 PM 68.9 °F - 55.9 °F 63% 30.04 in 10.0 mi SE 4.6 mph - N/A   Scattered Clouds
7:55 PM 68.0 °F - 55.8 °F 65% 30.04 in 10.0 mi SE 4.6 mph - N/A   Scattered Clouds
8:15 PM 66.9 °F - 55.2 °F 66% 30.05 in 10.0 mi SSE 5.8 mph - N/A   Clear
8:35 PM 66.2 °F - 54.9 °F 67% 30.05 in 10.0 mi Calm Calm - N/A   Clear
8:55 PM 66.4 °F - 54.3 °F 65% 30.05 in 10.0 mi SSE 4.6 mph - N/A   Clear
9:15 PM 66.6 °F - 53.2 °F 62% 30.05 in 10.0 mi South 5.8 mph - N/A   Scattered Clouds
9:35 PM 65.5 °F - 53.2 °F 65% 30.06 in 10.0 mi SE 4.6 mph - N/A   Mostly Cloudy
9:55 PM 64.4 °F - 53.6 °F 68% 30.06 in 10.0 mi Calm Calm - N/A   Mostly Cloudy
10:15 PM 64.4 °F - 54.3 °F 70% 30.07 in 10.0 mi East 5.8 mph - N/A   Mostly Cloudy
10:35 PM 64.9 °F - 54.0 °F 68% 30.07 in 10.0 mi East 6.9 mph - N/A   Mostly Cloudy
10:55 PM 64.6 °F - 53.8 °F 68% 30.07 in 10.0 mi ESE 4.6 mph - N/A   Scattered Clouds
11:15 PM 64.4 °F - 54.5 °F 70% 30.07 in 10.0 mi SE 6.9 mph - N/A   Mostly Cloudy
11:35 PM 64.6 °F - 54.9 °F 71% 30.07 in 10.0 mi SE 6.9 mph - N/A   Scattered Clouds
11:55 PM 64.8 °F - 54.9 °F 70% 30.06 in 10.0 mi SE 6.9 mph - N/A   Scattered Clouds